weather.gov     
National Weather Service

Regional Weather Roundup
NWS Homepage
This page is being discontinued on March 12, 2014.
The same data is available at this site. Please update your bookmarks.
Thank you, and we apologize for the inconvenience.
Please send an email to SR-SRH.Webmaster@noaa.gov with any concerns.


Current Version
Previous Version:    01  02  03  04  05  06  07  08  09  10  11  12  13  14  15  16  17  18  19  20  21  22  23  24  25  26  27  28  29  30  
   31  32  33  34  35  36  37  38  39  40  41  42  43  44  45  46  47  48  49  50  51  52  53  54  
[Printable]
805
ASUS44 KJAN 241610
RWRMS

MISSISSIPPI HOURLY WEATHER ROUNDUP
NATIONAL WEATHER SERVICE JACKSON MS
1100 AM CDT FRI OCT 24 2014

NOTE: "FAIR: INDICATES FEW OR NO CLOUDS BELOW 12,000 FEET WITH NO
SIGNIFICANT WEATHER AND/OR OBSTRUCTIONS TO VISIBILITY.

MSZ001>002-007>008-010>013-018>021-025>028-034>036-241700-
NORTHWEST MISSISSIPPI

CITY           SKY/WX    TMP DP  RH WIND       PRES   REMARKS
CLARKSDALE     FAIR      63  48  59 CALM      30.17F
CLEVELAND      FAIR      63  48  58 N6        30.17F
GREENWOOD      SUNNY     63  50  62 NW5       30.16F
GREENVILLE     SUNNY     64  47  53 N3        30.16F
GRENADA          N/A    N/A N/A N/A MISG        N/A
OLIVE BRANCH   MOSUNNY   61  46  59 N6        30.16S
OXFORD         FAIR      63  45  51 CALM      30.16F
TUNICA         SUNNY     63  48  59 NW7       30.17S
$$

MSZ003>006-009-014>017-022>024-029>033-037>039-241700-
NORTHEAST MISSISSIPPI

CITY           SKY/WX    TMP DP  RH WIND       PRES   REMARKS
COLUMBUS AFB   SUNNY     65  47  52 VRB3      30.14S
CORINTH        FAIR      63  46  55 VRB3      30.14S
GOLDN TRIANGLE SUNNY     64  48  55 N3        30.14S
STARKVILLE     FAIR      64  48  55 NW5       30.14F
TUPELO         SUNNY     63  47  55 VRB3      30.14F
$$

MSZ040-058-241700-
CENTRAL MISSISSIPPI

CITY           SKY/WX    TMP DP  RH WIND       PRES   REMARKS
JACKSON INTL   MOSUNNY   66  49  54 NW7       30.15S
JACKSON HAWKNS SUNNY     66  48  52 VRB7      30.16R
MERIDIAN KEY   SUNNY     66  50  56 N7        30.12F
MERIDIAN NAS   MOSUNNY   67  47  48 VRB3      30.13S
RAYMOND        FAIR      63  57  82 MISG      30.16S
VICKSBURG      SUNNY     63  49  60 N8        30.19R
$$

MSZ059>079-241700-
SOUTH MISSISSIPPI

CITY           SKY/WX    TMP DP  RH WIND       PRES   REMARKS
BROOKHAVEN     FAIR      63  48  59 NW7       30.16F
COLUMBIA         N/A    N/A N/A N/A MISG        N/A
HATTIESBURG    SUNNY     66  51  58 N5        30.13F
MCCOMB         SUNNY     66  48  52 N7        30.14S
NATCHEZ        SUNNY     63  52  67 N8        30.17S
PINE BELT      SUNNY     64  46  52 N5        30.14S
$$

MSZ080>082-241700-
COASTAL MISSISSIPPI

CITY           SKY/WX    TMP DP  RH WIND       PRES   REMARKS
BAY ST LOUIS   SUNNY     68  45  42 CALM      30.11F
BILOXI         SUNNY     69  48  47 N3        30.10F
PASCAGOULA     SUNNY     70  47  43 NE5       30.09F
GULFPORT       MOSUNNY   70  48  45 N6        30.10F
$$




U.S. Dept. of Commerce
NOAA National Weather Service
1325 East West Highway
Silver Spring, MD 20910
E-mail: w-nws.webmaster@noaa.gov
Page last modified: May 16, 2007
NATIONAL WEATHER SERVICE: for Safety, for Work, for Fun - FOR LIFE